Weather History for Pineville, WV

Change the Weather History Date:

Sunday, May 12, 2013

  Actual Average (KBKW) Record (KBKW)
Temperature  
Mean Temperature 50 °F 59 °F  
Max Temperature 60 °F 69 °F 85 °F (1936)
Min Temperature 40 °F 48 °F 24 °F (1940)
Degree Days  
Heating Degree Days 15 7  
Month to date heating degree days 95  
Since 1 July heating degree days 5204  
Cooling Degree Days 0 1  
Month to date cooling degree days 6  
Year to date cooling degree days 16  
Moisture  
Dew Point 39 °F    
Average Humidity 67    
Maximum Humidity 95    
Minimum Humidity 36    
Precipitation  
Precipitation 0.00 in 0.15 in 1.55 in (2010)
Month to date precipitation 1.72  
Year to date precipitation 14.22  
Snow  
Snow 0.00 in - - ()
Month to date snowfall  
Since 1 September snowfall  
Snow Depth -    
Sea Level Pressure  
Sea Level Pressure 30.07 in    
Wind  
Wind Speed - (North)    
Max Wind Speed -    
Max Gust Speed -    
Visibility 10 miles    
Events Rain    
T = Trace of Precipitation, MM = Missing Value Source: NWS Daily Summary

Daily Weather History Graph

Daily Weather History Graph

Search for Another Location

Airport:

Trip Planner

Search our weather history database for the weather conditions in past years. The results will help you decide how hot, cold, wet, or windy it might be!

Date:

Astronomy

May. 12, 2013 Rise Set
Actual Time 6:19 AM EDT 8:26 PM EDT
Civil Twilight 5:50 AM EDT 8:55 PM EDT
Nautical Twilight 5:14 AM EDT 9:31 PM EDT
Astronomical Twilight 4:36 AM EDT 10:09 PM EDT
Moon 8:13 AM EDT (5/12) 10:51 PM EDT (5/12)
Length of Visible Light 15h 05m
Length of Day
14h 07m
Waxing Crescent, 6% of the Moon is Illuminated
May 12
Waxing Crescent
May 18
First Quarter
May 25
Full
May 31
Last Quarter
Jun 8
New

Hourly Weather History & Observations

Time (EDT) Temp. Dew Point Humidity Pressure Visibility Wind Dir Wind Speed Gust Speed Precip Events Conditions
12:15 AM 56.7 °F 50.4 °F 79% 30.00 in 10.0 mi North - - N/A   Scattered Clouds
12:35 AM 55.0 °F 50.0 °F 83% 30.00 in 10.0 mi North - - N/A   Clear
12:55 AM 53.1 °F 50.4 °F 91% 30.01 in 10.0 mi North - - N/A   Mostly Cloudy
1:15 AM 54.5 °F 50.9 °F 88% 30.00 in 10.0 mi North - - N/A   Overcast
1:35 AM 54.9 °F 50.5 °F 85% 30.00 in 10.0 mi North - - N/A   Overcast
1:55 AM 54.9 °F 50.7 °F 86% 30.00 in 10.0 mi North - - N/A   Overcast
2:15 AM 54.7 °F 50.9 °F 87% 29.99 in 10.0 mi North - - N/A   Overcast
2:35 AM 54.7 °F 50.9 °F 87% 29.99 in 10.0 mi North - - N/A   Overcast
2:55 AM 54.7 °F 51.1 °F 88% 29.98 in 10.0 mi North - - N/A   Overcast
3:15 AM 54.5 °F 51.1 °F 88% 29.98 in 10.0 mi North - - N/A   Overcast
3:35 AM 54.3 °F 51.8 °F 91% 29.97 in 5.0 mi North - - N/A   Drizzle
3:55 AM 53.4 °F 52.2 °F 95% 29.97 in 5.0 mi North - - N/A Rain Light Rain
4:15 AM 51.6 °F 49.5 °F 92% 29.99 in 7.0 mi North - - N/A Rain Rain
4:35 AM 49.6 °F 47.5 °F 92% 29.99 in 10.0 mi North - - N/A Rain Light Rain
4:55 AM 48.4 °F 45.3 °F 89% 30.01 in 10.0 mi North - - N/A Rain Light Rain
5:35 AM 46.8 °F 43.5 °F 88% 30.02 in 10.0 mi North - - N/A   Overcast
5:55 AM 45.0 °F 43.2 °F 93% 30.02 in 10.0 mi North - - N/A   Scattered Clouds
6:15 AM 44.8 °F 42.8 °F 93% 30.03 in 10.0 mi North - - N/A   Mostly Cloudy
6:35 AM 44.6 °F 43.0 °F 94% 30.04 in 10.0 mi North - - N/A   Overcast
6:55 AM 44.8 °F 43.3 °F 95% 30.04 in 10.0 mi North - - N/A   Overcast
7:15 AM 45.3 °F 43.9 °F 95% 30.05 in 10.0 mi North - - N/A   Mostly Cloudy
7:35 AM 45.7 °F 43.5 °F 92% 30.06 in 10.0 mi North - - N/A   Mostly Cloudy
7:55 AM 46.8 °F 42.8 °F 86% 30.06 in 10.0 mi North - - N/A   Overcast
8:15 AM 47.1 °F 41.9 °F 82% 30.06 in 10.0 mi North - - N/A   Overcast
8:35 AM 48.2 °F 41.4 °F 77% 30.06 in 10.0 mi North - - N/A   Overcast
8:55 AM 48.7 °F 39.9 °F 72% 30.08 in 10.0 mi North - - N/A   Overcast
9:15 AM 48.9 °F 39.2 °F 69% 30.08 in 10.0 mi North - - N/A   Mostly Cloudy
9:35 AM 50.0 °F 39.0 °F 66% 30.08 in 10.0 mi North - - N/A   Mostly Cloudy
9:55 AM 50.9 °F 37.8 °F 61% 30.08 in 10.0 mi North - - N/A   Scattered Clouds
10:15 AM 50.5 °F 33.4 °F 52% 30.09 in 10.0 mi North - - N/A   Mostly Cloudy
10:35 AM 50.9 °F 34.7 °F 54% 30.08 in 10.0 mi North - - N/A   Mostly Cloudy
10:55 AM 52.7 °F 34.0 °F 49% 30.08 in 10.0 mi North - - N/A   Mostly Cloudy
11:15 AM 52.3 °F 33.6 °F 49% 30.08 in 10.0 mi North - - N/A   Mostly Cloudy
11:35 AM 52.3 °F 32.2 °F 46% 30.08 in 10.0 mi North - - N/A   Mostly Cloudy
11:55 AM 53.8 °F 34.2 °F 47% 30.08 in 10.0 mi North - - N/A   Mostly Cloudy
12:15 PM 53.8 °F 33.4 °F 46% 30.09 in 10.0 mi North - - N/A   Mostly Cloudy
12:35 PM 53.4 °F 32.7 °F 45% 30.09 in 10.0 mi North - - N/A   Overcast
12:55 PM 56.1 °F 35.1 °F 45% 30.08 in 10.0 mi North - - N/A   Mostly Cloudy
1:15 PM 55.2 °F 33.1 °F 43% 30.08 in 10.0 mi North - - N/A   Mostly Cloudy
1:35 PM 55.4 °F 32.9 °F 43% 30.08 in 10.0 mi North - - N/A   Mostly Cloudy
1:55 PM 57.2 °F 32.5 °F 39% 30.08 in 10.0 mi North - - N/A   Mostly Cloudy
2:15 PM 56.8 °F 32.9 °F 40% 30.09 in 10.0 mi North - - N/A   Mostly Cloudy
2:35 PM 58.5 °F 33.4 °F 39% 30.09 in 10.0 mi North - - N/A   Scattered Clouds
2:55 PM 56.3 °F 32.9 °F 41% 30.09 in 10.0 mi North - - N/A   Mostly Cloudy
3:15 PM 56.1 °F 33.6 °F 43% 30.09 in 10.0 mi North - - N/A   Mostly Cloudy
3:35 PM 58.3 °F 33.3 °F 39% 30.08 in 10.0 mi North - - N/A   Scattered Clouds
3:55 PM 57.4 °F 32.2 °F 39% 30.08 in 10.0 mi North - - N/A   Scattered Clouds
4:15 PM 59.4 °F 32.7 °F 37% 30.08 in 10.0 mi North - - N/A   Scattered Clouds
4:35 PM 57.9 °F 32.9 °F 39% 30.08 in 10.0 mi North - - N/A   Scattered Clouds
4:55 PM 59.4 °F 33.4 °F 38% 30.08 in 10.0 mi North - - N/A   Scattered Clouds
5:15 PM 59.4 °F 33.1 °F 37% 30.08 in 10.0 mi North - - N/A   Scattered Clouds
5:35 PM 59.9 °F 33.1 °F 36% 30.08 in 10.0 mi North - - N/A   Mostly Cloudy
5:55 PM 60.1 °F 33.1 °F 36% 30.08 in 10.0 mi North - - N/A   Mostly Cloudy
6:15 PM 59.0 °F 32.5 °F 37% 30.08 in 10.0 mi North - - N/A   Scattered Clouds
6:35 PM 58.3 °F 34.3 °F 41% 30.08 in 10.0 mi North - - N/A   Mostly Cloudy
6:55 PM 57.2 °F 34.7 °F 43% 30.08 in 10.0 mi North - - N/A   Mostly Cloudy
7:15 PM 56.5 °F 33.6 °F 42% 30.09 in 10.0 mi North - - N/A   Scattered Clouds
7:35 PM 55.9 °F 33.8 °F 43% 30.09 in 10.0 mi North - - N/A   Mostly Cloudy
7:55 PM 54.9 °F 34.3 °F 46% 30.10 in 10.0 mi North - - N/A   Scattered Clouds
8:15 PM 53.1 °F 34.3 °F 49% 30.10 in 10.0 mi North - - N/A   Clear
8:35 PM 49.8 °F 39.0 °F 66% 30.11 in 10.0 mi North - - N/A   Clear
8:55 PM 47.1 °F 39.0 °F 73% 30.11 in 10.0 mi North - - N/A   Clear
9:15 PM 45.7 °F 39.7 °F 80% 30.12 in 10.0 mi North - - N/A   Clear
9:35 PM 44.6 °F 39.6 °F 82% 30.13 in 10.0 mi North - - N/A   Clear
9:55 PM 43.2 °F 39.6 °F 87% 30.14 in 10.0 mi North - - N/A   Clear
10:15 PM 42.4 °F 39.2 °F 88% 30.15 in 10.0 mi North - - N/A   Clear
10:35 PM 41.4 °F 38.8 °F 91% 30.15 in 10.0 mi North - - N/A   Clear
10:55 PM 41.0 °F 38.7 °F 91% 30.16 in 10.0 mi North - - N/A   Scattered Clouds
11:15 PM 40.3 °F 38.5 °F 93% 30.16 in 10.0 mi North - - N/A   Scattered Clouds
11:35 PM 40.1 °F 38.3 °F 93% 30.15 in 10.0 mi North - - N/A   Scattered Clouds
11:55 PM 40.3 °F 38.5 °F 93% 30.16 in 10.0 mi North - - N/A   Mostly Cloudy